EW7199 Weather Reports


time (UTC)temp
F
wind
direction
speed
knots
gust
knots
rain 1hr
in
rain 24hr
in
rain mn
in
humidity
%
barometer
mb
20260507191910 63 87 1.7 2.6 0.00 0.13 0.13 70 1014.3
20260507191411 63 84 1.7 2.6 0.00 0.13 0.13 70 1014.3
20260507190908 63 72 1.7 2.6 0.00 0.13 0.13 70 1014.1
20260507190423 63 80 1.7 2.6 0.00 0.13 0.13 70 1014.1
20260507185908 63 81 1.7 2.6 0.00 0.13 0.13 69 1014.1
20260507185410 63 76 1.7 2.6 0.00 0.13 0.13 69 1014.2
20260507184910 63 71 1.7 2.6 0.00 0.13 0.13 68 1014.2
20260507184411 64 101 1.7 2.6 0.00 0.13 0.13 68 1014.3
20260507183909 64 91 1.7 2.6 0.00 0.13 0.13 68 1014.3
20260507183410 64 103 1.7 2.6 0.00 0.13 0.13 68 1014.2
20260507182910 64 86 1.7 2.6 0.00 0.13 0.13 68 1014.3
20260507182409 64 103 1.7 2.6 0.00 0.13 0.13 68 1014.3
20260507181909 64 125 1.7 2.6 0.00 0.13 0.13 68 1014.4
20260507181410 64 124 1.7 2.6 0.00 0.13 0.13 68 1014.4
20260507180910 64 114 1.7 2.6 0.00 0.13 0.13 68 1014.3
20260507180410 64 106 1.7 2.6 0.00 0.13 0.13 68 1014.2
20260507175909 64 111 1.7 2.6 0.00 0.13 0.13 68 1014.1
20260507175410 64 129 1.7 2.6 0.00 0.13 0.13 68 1014.1
20260507174910 65 97 1.7 2.6 0.00 0.13 0.13 67 1014.1
20260507174412 65 89 1.7 5.2 0.00 0.13 0.13 67 1014.1
20260507173909 65 92 0.9 2.6 0.00 0.13 0.13 67 1014.1
20260507173409 65 157 1.7 2.6 0.00 0.13 0.13 66 1014.2
20260507172909 65 122 1.7 2.6 0.00 0.13 0.13 65 1014.2
20260507172410 65 119 0.9 2.6 0.00 0.13 0.13 63 1014.1
20260507171909 65 66 0.9 2.6 0.00 0.13 0.13 63 1014.2
20260507171410 66 122 1.7 2.6 0.00 0.13 0.13 62 1014.1
20260507170910 66 128 1.7 2.6 0.00 0.13 0.13 62 1014.1
20260507165909 66 106 1.7 4.3 0.00 0.13 0.13 61 1014.2
20260507165410 66 121 1.7 2.6 0.00 0.13 0.13 60 1014.2
20260507164910 67 116 1.7 2.6 0.00 0.13 0.13 58 1014.1
20260507164410 67 163 1.7 2.6 0.00 0.13 0.13 56 1014.2
20260507163910 67 119 1.7 2.6 0.00 0.13 0.13 55 1014.2
20260507163408 67 121 2.6 2.6 0.00 0.13 0.13 54 1014.2
20260507162910 68 137 1.7 2.6 0.00 0.13 0.13 51 1014.3
20260507161909 68 128 2.6 4.3 0.00 0.13 0.13 50 1014.3
20260507161409 68 126 2.6 2.6 0.00 0.13 0.13 49 1014.2
20260507160909 68 143 2.6 4.3 0.00 0.13 0.13 48 1014.0
20260507160417 68 156 0.9 2.6 0.00 0.13 0.13 48 1014.0
20260507155910 68 130 2.6 5.2 0.00 0.13 0.13 46 1014.0
20260507155410 68 141 1.7 2.6 0.00 0.13 0.13 46 1014.1
20260507154909 69 118 2.6 4.3 0.00 0.13 0.13 46 1014.1
20260507154410 69 139 1.7 4.3 0.00 0.13 0.13 46 1014.2
20260507153910 69 146 1.7 4.3 0.00 0.13 0.13 45 1014.3
20260507153409 69 145 1.7 4.3 0.00 0.13 0.13 44 1014.3
20260507152910 69 130 2.6 2.6 0.00 0.13 0.13 43 1014.3
20260507152410 69 152 1.7 5.2 0.00 0.13 0.13 47 1014.4
20260507151910 69 120 1.7 4.3 0.00 0.13 0.13 46 1014.5
20260507151409 69 113 1.7 2.6 0.00 0.13 0.13 47 1014.5
20260507150910 69 135 2.6 4.3 0.00 0.13 0.13 47 1014.5
20260507145909 69 134 1.7 4.3 0.00 0.13 0.13 45 1014.6
20260507145410 69 111 1.7 2.6 0.00 0.13 0.13 45 1014.7
20260507144909 69 132 1.7 2.6 0.00 0.13 0.13 44 1014.7
20260507144413 69 125 2.6 4.3 0.00 0.13 0.13 44 1014.7
20260507143909 70 132 2.6 2.6 0.00 0.13 0.13 45 1014.6
20260507143408 69 120 1.7 2.6 0.00 0.13 0.13 44 1014.5
20260507142909 69 127 1.7 2.6 0.00 0.13 0.13 45 1014.6
20260507142408 69 130 2.6 5.2 0.00 0.13 0.13 41 1014.7
20260507141908 69 141 2.6 2.6 0.00 0.13 0.13 43 1014.8
20260507141409 70 139 2.6 4.3 0.00 0.13 0.13 44 1014.9
20260507140910 70 124 1.7 4.3 0.00 0.13 0.13 43 1015.0
20260507140410 69 119 1.7 5.2 0.00 0.13 0.13 44 1015.0
20260507135908 69 134 3.5 5.2 0.00 0.13 0.13 43 1014.9
20260507134409 70 210 1.7 4.3 0.00 0.13 0.13 45 1015.0
20260507133909 70 125 0.9 2.6 0.00 0.13 0.13 45 1015.1
20260507133409 70 109 1.7 5.2 0.00 0.13 0.13 45 1015.2
20260507132909 70 167 1.7 2.6 0.00 0.13 0.13 46 1015.2
20260507130910 69 139 1.7 5.2 0.00 0.13 0.13 54 1015.1
20260507130412 69 134 1.7 2.6 0.00 0.13 0.13 54 1015.2
20260507125909 69 135 1.7 2.6 0.00 0.13 0.13 52 1015.2
20260507125410 69 165 1.7 2.6 0.00 0.13 0.13 51 1015.2
20260507124909 69 238 0.9 2.6 0.00 0.13 0.13 54 1015.4
20260507124412 68 145 0.9 2.6 0.00 0.13 0.13 58 1015.5
20260507123909 68 263 0.9 2.6 0.00 0.13 0.13 63 1015.5
20260507123410 67 152 2.6 5.2 0.00 0.13 0.13 64 1015.6
20260507122909 67 139 3.5 6.1 0.00 0.13 0.13 67 1015.7
20260507122410 67 223 2.6 5.2 0.00 0.13 0.13 65 1015.5
20260507121910 67 120 2.6 2.6 0.00 0.13 0.13 69 1015.5
20260507121409 68 130 2.6 5.2 0.00 0.13 0.13 69 1015.6
20260507120910 68 135 1.7 2.6 0.00 0.13 0.13 70 1015.5
20260507120410 67 225 0.9 4.3 0.00 0.13 0.13 69 1015.6
20260507115909 67 165 2.6 4.3 0.00 0.13 0.13 73 1015.7
20260507115409 67 146 2.6 5.2 0.00 0.13 0.13 73 1015.8
20260507114908 66 146 1.7 2.6 0.00 0.13 0.13 77 1016.0
20260507114409 66 109 0.9 4.3 0.00 0.13 0.13 79 1016.1
20260507113910 66 125 1.7 4.3 0.00 0.13 0.13 78 1016.2
20260507113410 66 91 0.9 4.3 0.00 0.13 0.13 80 1016.1
20260507112910 66 154 0.9 2.6 0.00 0.13 0.13 81 1016.0
20260507112409 65 150 1.7 4.3 0.00 0.13 0.13 80 1016.0
20260507111910 65 154 1.7 2.6 0.00 0.13 0.13 80 1016.0
20260507111410 65 147 1.7 2.6 0.00 0.13 0.13 81 1016.2
20260507110910 65 37 1.7 2.6 0.00 0.13 0.13 80 1016.1
20260507110411 65 81 0.9 2.6 0.00 0.13 0.13 81 1016.2
20260507105909 65 233 1.7 2.6 0.00 0.13 0.13 82 1016.3
20260507105410 65 137 1.7 5.2 0.00 0.13 0.13 82 1016.4
20260507104909 65 90 1.7 2.6 0.00 0.13 0.13 83 1016.3
20260507104408 64 186 2.6 5.2 0.00 0.13 0.13 83 1016.3
20260507103910 65 140 2.6 4.3 0.00 0.13 0.13 83 1016.3
20260507103409 65 141 2.6 5.2 0.00 0.13 0.13 83 1016.4
20260507102910 65 161 1.7 2.6 0.00 0.13 0.13 84 1016.3
20260507102409 65 138 1.7 2.6 0.00 0.13 0.13 84 1016.4
20260507101910 65 150 1.7 4.3 0.00 0.13 0.13 84 1016.3
20260507101409 65 129 1.7 4.3 0.00 0.13 0.13 84 1016.1
20260507100909 65 143 2.6 6.1 0.00 0.13 0.13 83 1016.3
20260507100434 65 135 1.7 5.2 0.00 0.13 0.13 84 1016.3
20260507095908 65 138 1.7 6.1 0.00 0.13 0.13 85 1016.4
20260507095409 65 140 3.5 6.1 0.00 0.13 0.13 84 1016.3